User: anonymous   Login
Location: Caribou
(46.8667°N, 68.0167°W)
Time: 11:58:11
(UTC-04:00)
Language:

SL-08 RB Rocket - Orbit

View from above orbital plane
View from above orbital plane
View from above satellite
View from above satellite

Ground track
Ground track

The orbit data is extracted from the following two-line orbital elements,

1 26387U 00033D   16206.84084307  .00000087  00000-0  23611-4 0  9993
2 26387  98.0151 272.6815 0025274 298.4879 185.8336 14.68170758859845
Epoch (UTC): 24 July 2016 20:10:48
Eccentricity: 0.0025274
inclination: 98.0151°
perigee height: 649 km
apogee height: 685 km
right ascension of ascending node: 272.6815°
argument of perigee: 298.4879°
revolutions per day: 14.68170758
mean anomaly at epoch: 185.8336°
orbit number at epoch: 85984

The dashed part of the orbit path shows where the satellite is in the earth's shadow,  

DLR